Regional Weather Roundup
Issued by NWS

Home | Current Version | Previous Version | Graphics & Text | Print | Product List | Glossary Off
Versions: 1 2 3 4 5 6 7 8 9 10 11 12 13 14 15 16 17 18 19 20 21 22 23 24 25 26 27 28 29 30 31 32 33 34 35 36 37 38 39 40 41 42 43 44 45 46 47 48 49 50

000
ASUS43 KTOP 260659
RWRKS

WEATHER ROUNDUP FOR KANSAS
NATIONAL WEATHER SERVICE GOODLAND KS
200 AM CDT FRI MAY 26 2017

NOTE:  "FAIR" INDICATES FEW OR NO CLOUDS BELOW 12,000 FEET WITH NO
SIGNIFICANT WEATHER AND/OR OBSTRUCTIONS TO VISIBILITY.

KSZ001>006-013>018-027>032-041>047-260800-
NORTHWEST KANSAS

CITY           SKY/WX    TMP DP  RH WIND       PRES   REMARKS
GOODLAND       MOCLDY    55  52  89 SW8       29.82R
HAYS           PTCLDY    59  56  89 N3        29.63R
HILL CITY      PTCLDY    60  56  86 NW13      29.70R
RUSSELL        MOCLDY    61  59  93 NE5       29.59R
$$

KSZ061>065-074>080-084>089-260800-
SOUTHWEST KANSAS

CITY           SKY/WX    TMP DP  RH WIND       PRES   REMARKS
DODGE CITY     CLEAR     61  55  81 NE14      29.65R
ELKHART          N/A     54  42  64 NW8         N/A
GARDEN CITY    CLEAR     60  54  80 NE12      29.68R
GREAT BEND     MOCLDY    64  59  83 E15       29.61R
LIBERAL        CLEAR     62  54  74 N12       29.67R
$$

KSZ066>073-081>083-090>101-260800-
SOUTHEAST KANSAS

CITY           SKY/WX    TMP DP  RH WIND       PRES   REMARKS
CHANUTE        MOCLDY    70  59  68 E10       29.61F
COFFEYVILLE    MOCLDY    69  61  75 SE13      29.56F
HUTCHINSON     MOCLDY    66  61  84 NE14      29.57F
MEDICINE LODGE   N/A     69  60  73 NE14G26   29.55F
NEWTON         PTCLDY    65  60  84 NE9G16    29.62F
PARSONS        PTCLDY    70  60  70 N7        29.62R
WICHITA INTL   PTCLDY    68  61  78 E10       29.59F
WICHITA JABRA  CLEAR     66  60  81 E9        29.60F
WINFIELD       PTCLDY    71  61  70 MISG      29.63R
$$

KSZ007>012-019>026-033>040-048>060-102>105-260800-
NORTHEAST KANSAS

CITY           SKY/WX    TMP DP  RH WIND       PRES   REMARKS
CONCORDIA      CLOUDY    63  62  97 E5        29.58R
EMPORIA        MOCLDY    65  61  87 N10G18    29.66R
LAWRENCE       CLOUDY    65  60  84 CALM      29.66F
MANHATTAN      LGT RAIN  65  63  93 SE16      29.59F
OLATHE IND     CLOUDY    65  58  78 S7        29.67F
OLATHE EXE     PTCLDY    64  58  80 SE10      29.64F
SALINA         CLOUDY    68  62  81 E10       29.56F
TOPEKA BILLARD CLOUDY    64  62  93 CALM      29.66R
TOPEKA FORBES  CLOUDY    66  60  81 SE3       29.66R
$$




USA.gov is the U.S. government's official web portal to all federal, state and local government web resources and services.